Year,Month,Day,Hour,Minute,Value (Times are PST for temperature in C)
2009,07,27,00,00,16.30
2009,07,27,00,01,16.30
2009,07,27,00,02,16.40
2009,07,27,00,03,16.40
2009,07,27,00,04,16.40
2009,07,27,00,05,16.50
2009,07,27,00,06,16.60
2009,07,27,00,07,16.60
2009,07,27,00,08,16.60
2009,07,27,00,09,16.70
2009,07,27,00,10,16.70
2009,07,27,00,11,16.70
2009,07,27,00,12,16.80
2009,07,27,00,13,16.80
2009,07,27,00,14,16.80
2009,07,27,00,15,16.90
2009,07,27,00,16,16.90
2009,07,27,00,17,16.90
2009,07,27,00,18,16.90
2009,07,27,00,19,16.90
2009,07,27,00,20,17.00
2009,07,27,00,21,17.10
2009,07,27,00,22,17.10
2009,07,27,00,23,17.10
2009,07,27,00,24,17.20
2009,07,27,00,25,17.20
2009,07,27,00,26,17.20
2009,07,27,00,27,17.20
2009,07,27,00,28,17.20
2009,07,27,00,29,17.20
2009,07,27,00,30,17.30
2009,07,27,00,31,17.30
2009,07,27,00,32,17.30
2009,07,27,00,33,17.30
2009,07,27,00,34,17.30
2009,07,27,00,35,17.30
2009,07,27,00,36,17.20
2009,07,27,00,37,17.20
2009,07,27,00,38,17.20
2009,07,27,00,39,17.20
2009,07,27,00,40,17.20
2009,07,27,00,41,17.20
2009,07,27,00,42,17.20
2009,07,27,00,43,17.20
2009,07,27,00,44,17.20
2009,07,27,00,45,17.20
2009,07,27,00,46,17.20
2009,07,27,00,47,17.20
2009,07,27,00,48,17.20
2009,07,27,00,49,17.20
2009,07,27,00,50,17.20
2009,07,27,00,51,17.20
2009,07,27,00,52,17.30
2009,07,27,00,53,17.30
2009,07,27,00,54,17.30
2009,07,27,00,55,17.30
2009,07,27,00,56,17.30
2009,07,27,00,57,17.30
2009,07,27,00,58,17.30
2009,07,27,00,59,17.30
2009,07,27,01,00,17.40
2009,07,27,01,01,17.40
2009,07,27,01,02,17.40
2009,07,27,01,03,17.50
2009,07,27,01,04,17.50
2009,07,27,01,05,17.50
2009,07,27,01,06,17.50
2009,07,27,01,07,17.50
2009,07,27,01,08,17.50
2009,07,27,01,09,17.60
2009,07,27,01,10,17.60
2009,07,27,01,11,17.60
2009,07,27,01,12,17.60
2009,07,27,01,13,17.60
2009,07,27,01,14,17.60
2009,07,27,01,15,17.60
2009,07,27,01,16,17.60
2009,07,27,01,17,17.60
2009,07,27,01,18,17.60
2009,07,27,01,19,17.50
2009,07,27,01,20,17.50
2009,07,27,01,21,17.50
2009,07,27,01,22,17.50
2009,07,27,01,23,17.40
2009,07,27,01,24,17.40
2009,07,27,01,25,17.40
2009,07,27,01,26,17.30
2009,07,27,01,27,17.30
2009,07,27,01,28,17.20
2009,07,27,01,29,17.10
2009,07,27,01,30,17.00
2009,07,27,01,31,16.90
2009,07,27,01,32,16.80
2009,07,27,01,33,16.60
2009,07,27,01,34,16.50
2009,07,27,01,35,16.30
2009,07,27,01,36,16.20
2009,07,27,01,37,16.10
2009,07,27,01,38,16.00
2009,07,27,01,39,15.90
2009,07,27,01,40,15.80
2009,07,27,01,41,15.70
2009,07,27,01,42,15.60
2009,07,27,01,43,15.50
2009,07,27,01,44,15.40
2009,07,27,01,45,15.40
2009,07,27,01,46,15.30
2009,07,27,01,47,15.30
2009,07,27,01,48,15.20
2009,07,27,01,49,15.20
2009,07,27,01,50,15.10
2009,07,27,01,51,15.00
2009,07,27,01,52,15.00
2009,07,27,01,53,15.00
2009,07,27,01,54,15.00
2009,07,27,01,55,15.00
2009,07,27,01,56,15.00
2009,07,27,01,57,15.00
2009,07,27,01,58,15.00
2009,07,27,01,59,15.00
2009,07,27,02,00,15.00
2009,07,27,02,01,15.00
2009,07,27,02,02,15.00
2009,07,27,02,03,15.00
2009,07,27,02,04,15.10
2009,07,27,02,05,15.20
2009,07,27,02,06,15.30
2009,07,27,02,07,15.40
2009,07,27,02,08,15.50
2009,07,27,02,09,15.60
2009,07,27,02,10,15.70
2009,07,27,02,11,15.70
2009,07,27,02,12,15.70
2009,07,27,02,13,15.70
2009,07,27,02,14,15.60
2009,07,27,02,15,15.60
2009,07,27,02,16,15.60
2009,07,27,02,17,15.60
2009,07,27,02,18,15.60
2009,07,27,02,19,15.60
2009,07,27,02,20,15.70
2009,07,27,02,21,15.70
2009,07,27,02,22,15.80
2009,07,27,02,23,15.90
2009,07,27,02,24,15.90
2009,07,27,02,25,15.90
2009,07,27,02,26,15.90
2009,07,27,02,27,16.00
2009,07,27,02,28,16.00
2009,07,27,02,29,16.10
2009,07,27,02,30,16.10
2009,07,27,02,31,16.10
2009,07,27,02,32,16.10
2009,07,27,02,33,16.10
2009,07,27,02,34,16.10
2009,07,27,02,35,16.10
2009,07,27,02,36,16.10
2009,07,27,02,37,16.10
2009,07,27,02,38,16.10
2009,07,27,02,39,16.10
2009,07,27,02,40,16.10
2009,07,27,02,41,16.10
2009,07,27,02,42,16.10
2009,07,27,02,43,16.10
2009,07,27,02,44,16.10
2009,07,27,02,45,16.10
2009,07,27,02,46,16.10
2009,07,27,02,47,16.10
2009,07,27,02,48,16.10
2009,07,27,02,49,16.10
2009,07,27,02,50,16.10
2009,07,27,02,51,16.00
2009,07,27,02,52,16.00
2009,07,27,02,53,16.00
2009,07,27,02,54,16.00
2009,07,27,02,55,16.00
2009,07,27,02,56,16.00
2009,07,27,02,57,16.00
2009,07,27,02,58,16.00
2009,07,27,02,59,16.00
2009,07,27,03,00,15.90
2009,07,27,03,01,15.90
2009,07,27,03,02,15.90
2009,07,27,03,03,15.90
2009,07,27,03,04,15.90
2009,07,27,03,05,15.90
2009,07,27,03,06,15.90
2009,07,27,03,07,15.90
2009,07,27,03,08,15.90
2009,07,27,03,09,15.90
2009,07,27,03,10,15.90
2009,07,27,03,11,15.90
2009,07,27,03,12,15.90
2009,07,27,03,13,15.90
2009,07,27,03,14,15.90
2009,07,27,03,15,15.80
2009,07,27,03,16,15.80
2009,07,27,03,17,15.80
2009,07,27,03,18,15.80
2009,07,27,03,19,15.80
2009,07,27,03,20,15.80
2009,07,27,03,21,15.80
2009,07,27,03,22,15.80
2009,07,27,03,23,15.70
2009,07,27,03,24,15.70
2009,07,27,03,25,15.70
2009,07,27,03,26,15.70
2009,07,27,03,27,15.70
2009,07,27,03,28,15.70
2009,07,27,03,29,15.60
2009,07,27,03,30,15.60
2009,07,27,03,31,15.60
2009,07,27,03,32,15.60
2009,07,27,03,33,15.60
2009,07,27,03,34,15.50
2009,07,27,03,35,15.50
2009,07,27,03,36,15.50
2009,07,27,03,37,15.50
2009,07,27,03,38,15.40
2009,07,27,03,39,15.40
2009,07,27,03,40,15.40
2009,07,27,03,41,15.40
2009,07,27,03,42,15.30
2009,07,27,03,43,15.30
2009,07,27,03,44,15.30
2009,07,27,03,45,15.30
2009,07,27,03,46,15.30
2009,07,27,03,47,15.20
2009,07,27,03,48,15.20
2009,07,27,03,49,15.20
2009,07,27,03,50,15.10
2009,07,27,03,51,15.10
2009,07,27,03,52,15.10
2009,07,27,03,53,15.00
2009,07,27,03,54,15.00
2009,07,27,03,55,15.00
2009,07,27,03,56,15.00
2009,07,27,03,57,15.00
2009,07,27,03,58,15.00
2009,07,27,03,59,15.00
2009,07,27,04,00,15.00
2009,07,27,04,01,15.00
2009,07,27,04,02,15.00
2009,07,27,04,03,15.00
2009,07,27,04,04,15.00
2009,07,27,04,05,15.00
2009,07,27,04,06,15.00
2009,07,27,04,07,15.00
2009,07,27,04,08,15.00
2009,07,27,04,09,15.00
2009,07,27,04,10,15.00
2009,07,27,04,11,15.00
2009,07,27,04,12,15.00
2009,07,27,04,13,15.00
2009,07,27,04,14,15.00
2009,07,27,04,15,15.00
2009,07,27,04,16,15.00
2009,07,27,04,17,15.00
2009,07,27,04,18,15.00
2009,07,27,04,19,15.00
2009,07,27,04,20,15.00
2009,07,27,04,21,15.00
2009,07,27,04,22,15.00
2009,07,27,04,23,15.10
2009,07,27,04,24,15.00
2009,07,27,04,25,15.10
2009,07,27,04,26,15.10
2009,07,27,04,27,15.00
2009,07,27,04,28,15.00
2009,07,27,04,29,15.00
2009,07,27,04,30,15.00
2009,07,27,04,31,15.00
2009,07,27,04,32,15.00
2009,07,27,04,33,15.00
2009,07,27,04,34,15.00
2009,07,27,04,35,15.00
2009,07,27,04,36,15.00
2009,07,27,04,37,15.00
2009,07,27,04,38,15.00
2009,07,27,04,39,15.00
2009,07,27,04,40,15.00
2009,07,27,04,41,15.00
2009,07,27,04,42,15.00
2009,07,27,04,43,15.00
2009,07,27,04,44,15.00
2009,07,27,04,45,15.00
2009,07,27,04,46,15.00
2009,07,27,04,47,15.00
2009,07,27,04,48,15.00
2009,07,27,04,49,15.00
2009,07,27,04,50,15.00
2009,07,27,04,51,15.00
2009,07,27,04,52,15.00
2009,07,27,04,53,15.00
2009,07,27,04,54,15.00
2009,07,27,04,55,15.00
2009,07,27,04,56,15.00
2009,07,27,04,57,15.00
2009,07,27,04,58,15.00
2009,07,27,04,59,15.00
2009,07,27,05,00,15.00
2009,07,27,05,01,15.00
2009,07,27,05,02,15.00
2009,07,27,05,03,15.00
2009,07,27,05,04,15.00
2009,07,27,05,05,15.00
2009,07,27,05,06,15.00
2009,07,27,05,07,15.00
2009,07,27,05,08,15.00
2009,07,27,05,09,15.00
2009,07,27,05,10,15.00
2009,07,27,05,11,15.00
2009,07,27,05,12,15.00
2009,07,27,05,13,15.00
2009,07,27,05,14,15.00
2009,07,27,05,15,15.00
2009,07,27,05,16,15.00
2009,07,27,05,17,15.00
2009,07,27,05,18,15.00
2009,07,27,05,19,15.00
2009,07,27,05,20,15.00
2009,07,27,05,21,15.00
2009,07,27,05,22,15.00
2009,07,27,05,23,15.00
2009,07,27,05,24,15.00
2009,07,27,05,25,15.00
2009,07,27,05,26,15.00
2009,07,27,05,27,15.00
2009,07,27,05,28,15.00
2009,07,27,05,29,15.00
2009,07,27,05,30,15.00
2009,07,27,05,31,15.00
2009,07,27,05,32,15.00
2009,07,27,05,33,15.00
2009,07,27,05,34,15.00
2009,07,27,05,35,15.00
2009,07,27,05,36,15.00
2009,07,27,05,37,15.00
2009,07,27,05,38,15.00
2009,07,27,05,39,15.00
2009,07,27,05,40,15.00
2009,07,27,05,41,15.00
2009,07,27,05,42,15.00
2009,07,27,05,43,15.00
2009,07,27,05,44,15.00
2009,07,27,05,45,15.00
2009,07,27,05,46,15.00
2009,07,27,05,47,15.00
2009,07,27,05,48,15.00
2009,07,27,05,49,15.00
2009,07,27,05,50,15.00
2009,07,27,05,51,15.00
2009,07,27,05,52,15.00
2009,07,27,05,53,15.10
2009,07,27,05,54,15.20
2009,07,27,05,55,15.20
2009,07,27,05,56,15.20
2009,07,27,05,57,15.20
2009,07,27,05,58,15.30
2009,07,27,05,59,15.30
2009,07,27,06,00,15.30
2009,07,27,06,01,15.30
2009,07,27,06,02,15.30
2009,07,27,06,03,15.30
2009,07,27,06,04,15.30
2009,07,27,06,05,15.30
2009,07,27,06,06,15.30
2009,07,27,06,07,15.30
2009,07,27,06,08,15.40
2009,07,27,06,09,15.40
2009,07,27,06,10,15.40
2009,07,27,06,11,15.50
2009,07,27,06,12,15.50
2009,07,27,06,13,15.50
2009,07,27,06,14,15.60
2009,07,27,06,15,15.60
2009,07,27,06,16,15.70
2009,07,27,06,17,15.70
2009,07,27,06,18,15.70
2009,07,27,06,19,15.70
2009,07,27,06,20,15.80
2009,07,27,06,21,15.80
2009,07,27,06,22,15.80
2009,07,27,06,23,15.90
2009,07,27,06,24,15.90
2009,07,27,06,25,16.00
2009,07,27,06,26,16.00
2009,07,27,06,27,16.10
2009,07,27,06,28,16.10
2009,07,27,06,29,16.20
2009,07,27,06,30,16.20
2009,07,27,06,31,16.20
2009,07,27,06,32,16.30
2009,07,27,06,33,16.30
2009,07,27,06,34,16.40
2009,07,27,06,35,16.40
2009,07,27,06,36,16.50
2009,07,27,06,37,16.50
2009,07,27,06,38,16.60
2009,07,27,06,39,16.70
2009,07,27,06,40,16.80
2009,07,27,06,41,16.90
2009,07,27,06,42,17.00
2009,07,27,06,43,17.10
2009,07,27,06,44,17.10
2009,07,27,06,45,17.20
2009,07,27,06,46,17.30
2009,07,27,06,47,17.40
2009,07,27,06,48,17.40
2009,07,27,06,49,17.40
2009,07,27,06,50,17.40
2009,07,27,06,51,17.40
2009,07,27,06,52,17.40
2009,07,27,06,53,17.40
2009,07,27,06,54,17.50
2009,07,27,06,55,17.50
2009,07,27,06,56,17.60
2009,07,27,06,57,17.60
2009,07,27,06,58,17.70
2009,07,27,06,59,17.70
2009,07,27,07,00,17.70
2009,07,27,07,01,17.70
2009,07,27,07,02,17.70
2009,07,27,07,03,17.70
2009,07,27,07,04,17.70
2009,07,27,07,05,17.70
2009,07,27,07,06,17.60
2009,07,27,07,07,17.60
2009,07,27,07,08,17.60
2009,07,27,07,09,17.60
2009,07,27,07,10,17.60
2009,07,27,07,11,17.60
2009,07,27,07,12,17.60
2009,07,27,07,13,17.70
2009,07,27,07,14,17.70
2009,07,27,07,15,17.70
2009,07,27,07,16,17.70
2009,07,27,07,17,17.70
2009,07,27,07,18,17.70
2009,07,27,07,19,17.70
2009,07,27,07,20,17.70
2009,07,27,07,21,17.70
2009,07,27,07,22,17.70
2009,07,27,07,23,17.60
2009,07,27,07,24,17.50
2009,07,27,07,25,17.50
2009,07,27,07,26,17.40
2009,07,27,07,27,17.30
2009,07,27,07,28,17.30
2009,07,27,07,29,17.30
2009,07,27,07,30,17.30
2009,07,27,07,31,17.30
2009,07,27,07,32,17.30
2009,07,27,07,33,17.30
2009,07,27,07,34,17.30
2009,07,27,07,35,17.30
2009,07,27,07,36,17.30
2009,07,27,07,37,17.20
2009,07,27,07,38,17.20
2009,07,27,07,39,17.20
2009,07,27,07,40,17.20
2009,07,27,07,41,17.20
2009,07,27,07,42,17.20
2009,07,27,07,43,17.20
2009,07,27,07,44,17.20
2009,07,27,07,45,17.20
2009,07,27,07,46,17.20
2009,07,27,07,47,17.20
2009,07,27,07,48,17.20
2009,07,27,07,49,17.20
2009,07,27,07,50,17.20
2009,07,27,07,51,17.20
2009,07,27,07,52,17.10
2009,07,27,07,53,17.20
2009,07,27,07,54,17.20
2009,07,27,07,55,17.20
2009,07,27,07,56,17.30
2009,07,27,07,57,17.30
2009,07,27,07,58,17.40
2009,07,27,07,59,17.50
2009,07,27,08,00,17.60
2009,07,27,08,01,17.70
2009,07,27,08,02,17.80
2009,07,27,08,03,17.90
2009,07,27,08,04,17.90
2009,07,27,08,05,18.00
2009,07,27,08,06,18.10
2009,07,27,08,07,18.10
2009,07,27,08,08,18.20
2009,07,27,08,09,18.20
2009,07,27,08,10,18.20
2009,07,27,08,11,18.20
2009,07,27,08,12,18.30
2009,07,27,08,13,18.30
2009,07,27,08,14,18.30
2009,07,27,08,15,18.30
2009,07,27,08,16,18.30
2009,07,27,08,17,18.30
2009,07,27,08,18,18.30
2009,07,27,08,19,18.30
2009,07,27,08,20,18.30
2009,07,27,08,21,18.30
2009,07,27,08,22,18.20
2009,07,27,08,23,18.20
2009,07,27,08,24,18.20
2009,07,27,08,25,18.20
2009,07,27,08,26,18.20
2009,07,27,08,27,18.20
2009,07,27,08,28,18.20
2009,07,27,08,29,18.20
2009,07,27,08,30,18.30
2009,07,27,08,31,18.30
2009,07,27,08,32,18.40
2009,07,27,08,33,18.40
2009,07,27,08,34,18.50
2009,07,27,08,35,18.50
2009,07,27,08,36,18.60
2009,07,27,08,37,18.70
2009,07,27,08,38,18.70
2009,07,27,08,39,18.70
2009,07,27,08,40,18.80
2009,07,27,08,41,18.80
2009,07,27,08,42,18.80
2009,07,27,08,43,18.90
2009,07,27,08,44,18.90
2009,07,27,08,45,19.00
2009,07,27,08,46,19.00
2009,07,27,08,47,19.10
2009,07,27,08,48,19.10
2009,07,27,08,49,19.20
2009,07,27,08,50,19.20
2009,07,27,08,51,19.30
2009,07,27,08,52,19.30
2009,07,27,08,53,19.30
2009,07,27,08,54,19.40
2009,07,27,08,55,19.50
2009,07,27,08,56,19.50
2009,07,27,08,57,19.60
2009,07,27,08,58,19.60
2009,07,27,08,59,19.70
2009,07,27,09,00,19.70
2009,07,27,09,01,19.70
2009,07,27,09,02,19.70
2009,07,27,09,03,19.80
2009,07,27,09,04,19.80
2009,07,27,09,05,19.80
2009,07,27,09,06,19.90
2009,07,27,09,07,20.00
2009,07,27,09,08,20.10
2009,07,27,09,09,20.20
2009,07,27,09,10,20.20
2009,07,27,09,11,20.20
2009,07,27,09,12,20.30
2009,07,27,09,13,20.30
2009,07,27,09,14,20.20
2009,07,27,09,15,20.30
2009,07,27,09,16,20.30
2009,07,27,09,17,20.40
2009,07,27,09,18,20.40
2009,07,27,09,19,20.40
2009,07,27,09,20,20.30
2009,07,27,09,21,20.20
2009,07,27,09,22,20.20
2009,07,27,09,23,20.10
2009,07,27,09,24,20.00
2009,07,27,09,25,19.90
2009,07,27,09,26,19.90
2009,07,27,09,27,20.00
2009,07,27,09,28,20.00
2009,07,27,09,29,20.10
2009,07,27,09,30,20.20
2009,07,27,09,31,20.30
2009,07,27,09,32,20.30
2009,07,27,09,33,20.30
2009,07,27,09,34,20.20
2009,07,27,09,35,20.00
2009,07,27,09,36,19.90
2009,07,27,09,37,19.90
2009,07,27,09,38,19.90
2009,07,27,09,39,20.10
2009,07,27,09,40,20.10
2009,07,27,09,41,20.10
2009,07,27,09,42,20.00
2009,07,27,09,43,19.90
2009,07,27,09,44,19.80
2009,07,27,09,45,19.80
2009,07,27,09,46,19.80
2009,07,27,09,47,19.80
2009,07,27,09,48,19.80
2009,07,27,09,49,19.80
2009,07,27,09,50,19.80
2009,07,27,09,51,19.80
2009,07,27,09,52,19.90
2009,07,27,09,53,20.00
2009,07,27,09,54,20.00
2009,07,27,09,55,20.10
2009,07,27,09,56,20.20
2009,07,27,09,57,20.20
2009,07,27,09,58,20.30
2009,07,27,09,59,20.40
2009,07,27,10,00,20.40
2009,07,27,10,01,20.40
2009,07,27,10,02,20.50
2009,07,27,10,03,20.60
2009,07,27,10,04,20.60
2009,07,27,10,05,20.60
2009,07,27,10,06,20.50
2009,07,27,10,07,20.50
2009,07,27,10,08,20.50
2009,07,27,10,09,20.50
2009,07,27,10,10,20.50
2009,07,27,10,11,20.50
2009,07,27,10,12,20.60
2009,07,27,10,13,20.70
2009,07,27,10,14,20.80
2009,07,27,10,15,20.80
2009,07,27,10,16,20.80
2009,07,27,10,17,20.90
2009,07,27,10,18,21.00
2009,07,27,10,19,21.00
2009,07,27,10,20,21.10
2009,07,27,10,21,21.20
2009,07,27,10,22,21.20
2009,07,27,10,23,21.30
2009,07,27,10,24,21.30
2009,07,27,10,25,21.40
2009,07,27,10,26,21.40
2009,07,27,10,27,21.40
2009,07,27,10,28,21.30
2009,07,27,10,29,21.40
2009,07,27,10,30,21.50
2009,07,27,10,31,21.60
2009,07,27,10,32,21.70
2009,07,27,10,33,21.80
2009,07,27,10,34,21.90
2009,07,27,10,35,22.10
2009,07,27,10,36,22.20
2009,07,27,10,37,22.30
2009,07,27,10,38,22.30
2009,07,27,10,39,22.30
2009,07,27,10,40,22.30
2009,07,27,10,41,22.30
2009,07,27,10,42,22.20
2009,07,27,10,43,22.20
2009,07,27,10,44,22.10
2009,07,27,10,45,22.20
2009,07,27,10,46,22.10
2009,07,27,10,47,22.10
2009,07,27,10,48,22.20
2009,07,27,10,49,22.20
2009,07,27,10,50,22.20
2009,07,27,10,51,22.30
2009,07,27,10,52,22.30
2009,07,27,10,53,22.30
2009,07,27,10,54,22.40
2009,07,27,10,55,22.40
2009,07,27,10,56,22.40
2009,07,27,10,57,22.40
2009,07,27,10,58,22.40
2009,07,27,10,59,22.50
2009,07,27,11,00,22.50
2009,07,27,11,01,22.50
2009,07,27,11,02,22.60
2009,07,27,11,03,22.60
2009,07,27,11,04,22.60
2009,07,27,11,05,22.70
2009,07,27,11,06,22.70
2009,07,27,11,07,22.70
2009,07,27,11,08,22.70
2009,07,27,11,09,22.80
2009,07,27,11,10,22.90
2009,07,27,11,11,22.90
2009,07,27,11,12,22.90
2009,07,27,11,13,22.90
2009,07,27,11,14,22.80
2009,07,27,11,15,22.80
2009,07,27,11,16,22.70
2009,07,27,11,17,22.70
2009,07,27,11,18,22.80
2009,07,27,11,19,22.80
2009,07,27,11,20,22.70
2009,07,27,11,21,22.70
2009,07,27,11,22,22.60
2009,07,27,11,23,22.60
2009,07,27,11,24,22.70
2009,07,27,11,25,22.80
2009,07,27,11,26,22.80
2009,07,27,11,27,22.70
2009,07,27,11,28,22.60
2009,07,27,11,29,22.50
2009,07,27,11,30,22.50
2009,07,27,11,31,22.50
2009,07,27,11,32,22.30
2009,07,27,11,33,22.20
2009,07,27,11,34,22.20
2009,07,27,11,35,22.10
2009,07,27,11,36,22.00
2009,07,27,11,37,21.90
2009,07,27,11,38,21.80
2009,07,27,11,39,21.90
2009,07,27,11,40,21.90
2009,07,27,11,41,21.80
2009,07,27,11,42,21.80
2009,07,27,11,43,21.80
2009,07,27,11,44,21.90
2009,07,27,11,45,22.00
2009,07,27,11,46,21.90
2009,07,27,11,47,21.80
2009,07,27,11,48,21.90
2009,07,27,11,49,21.90
2009,07,27,11,50,21.80
2009,07,27,11,51,21.80
2009,07,27,11,52,21.70
2009,07,27,11,53,21.70
2009,07,27,11,54,21.60
2009,07,27,11,55,21.50
2009,07,27,11,56,21.60
2009,07,27,11,57,21.70
2009,07,27,11,58,21.80
2009,07,27,11,59,21.90
2009,07,27,12,00,22.00
2009,07,27,12,01,22.10
2009,07,27,12,02,22.00
2009,07,27,12,03,22.00
2009,07,27,12,04,21.90
2009,07,27,12,05,21.90
2009,07,27,12,06,22.00
2009,07,27,12,07,22.00
2009,07,27,12,08,22.10
2009,07,27,12,09,22.10
2009,07,27,12,10,22.10
2009,07,27,12,11,22.10
2009,07,27,12,12,22.10
2009,07,27,12,13,22.20
2009,07,27,12,14,22.30
2009,07,27,12,15,22.50
2009,07,27,12,16,22.70
2009,07,27,12,17,22.90
2009,07,27,12,18,23.10
2009,07,27,12,19,23.30
2009,07,27,12,20,23.30
2009,07,27,12,21,23.40
2009,07,27,12,22,23.30
2009,07,27,12,23,23.30
2009,07,27,12,24,23.30
2009,07,27,12,25,23.20
2009,07,27,12,26,23.10
2009,07,27,12,27,23.00
2009,07,27,12,28,22.90
2009,07,27,12,29,22.80
2009,07,27,12,30,22.90
2009,07,27,12,31,23.00
2009,07,27,12,32,23.10
2009,07,27,12,33,23.10
2009,07,27,12,34,23.10
2009,07,27,12,35,23.10
2009,07,27,12,36,23.20
2009,07,27,12,37,23.30
2009,07,27,12,38,23.40
2009,07,27,12,39,23.60
2009,07,27,12,40,23.70
2009,07,27,12,41,23.80
2009,07,27,12,42,23.80
2009,07,27,12,43,23.80
2009,07,27,12,44,23.70
2009,07,27,12,45,23.60
2009,07,27,12,46,23.70
2009,07,27,12,47,23.70
2009,07,27,12,48,23.80
2009,07,27,12,49,23.80
2009,07,27,12,50,23.80
2009,07,27,12,51,23.70
2009,07,27,12,52,23.60
2009,07,27,12,53,23.60
2009,07,27,12,54,23.60
2009,07,27,12,55,23.50
2009,07,27,12,56,23.50
2009,07,27,12,57,23.60
2009,07,27,12,58,23.60
2009,07,27,12,59,23.60
2009,07,27,13,00,23.70
2009,07,27,13,01,23.90
2009,07,27,13,02,24.00
2009,07,27,13,03,24.00
2009,07,27,13,04,24.10
2009,07,27,13,05,24.10
2009,07,27,13,06,24.10
2009,07,27,13,07,24.20
2009,07,27,13,08,24.30
2009,07,27,13,09,24.30
2009,07,27,13,10,24.20
2009,07,27,13,11,24.30
2009,07,27,13,12,24.30
2009,07,27,13,13,24.30
2009,07,27,13,14,24.50
2009,07,27,13,15,24.60
2009,07,27,13,16,24.50
2009,07,27,13,17,24.50
2009,07,27,13,18,24.40
2009,07,27,13,19,24.30
2009,07,27,13,20,24.20
2009,07,27,13,21,24.20
2009,07,27,13,22,24.20
2009,07,27,13,23,24.30
2009,07,27,13,24,24.20
2009,07,27,13,25,24.20
2009,07,27,13,26,24.10
2009,07,27,13,27,24.10
2009,07,27,13,28,23.90
2009,07,27,13,29,23.80
2009,07,27,13,30,23.70
2009,07,27,13,31,23.50
2009,07,27,13,32,23.50
2009,07,27,13,33,23.60
2009,07,27,13,34,23.70
2009,07,27,13,35,23.70
2009,07,27,13,36,23.80
2009,07,27,13,37,23.70
2009,07,27,13,38,23.70
2009,07,27,13,39,23.70
2009,07,27,13,40,23.80
2009,07,27,13,41,23.90
2009,07,27,13,42,23.90
2009,07,27,13,43,23.90
2009,07,27,13,44,24.00
2009,07,27,13,45,24.10
2009,07,27,13,46,24.20
2009,07,27,13,47,24.20
2009,07,27,13,48,24.20
2009,07,27,13,49,24.20
2009,07,27,13,50,24.10
2009,07,27,13,51,24.20
2009,07,27,13,52,24.20
2009,07,27,13,53,24.20
2009,07,27,13,54,24.40
2009,07,27,13,55,24.40
2009,07,27,13,56,24.40
2009,07,27,13,57,24.30
2009,07,27,13,58,24.30
2009,07,27,13,59,24.20
2009,07,27,14,00,24.20
2009,07,27,14,01,24.10
2009,07,27,14,02,24.00
2009,07,27,14,03,23.90
2009,07,27,14,04,23.70
2009,07,27,14,05,23.70
2009,07,27,14,06,23.50
2009,07,27,14,07,23.40
2009,07,27,14,08,23.40
2009,07,27,14,09,23.40
2009,07,27,14,10,23.40
2009,07,27,14,11,23.40
2009,07,27,14,12,23.40
2009,07,27,14,13,23.50
2009,07,27,14,14,23.50
2009,07,27,14,15,23.50
2009,07,27,14,16,23.50
2009,07,27,14,17,23.40
2009,07,27,14,18,23.40
2009,07,27,14,19,23.50
2009,07,27,14,20,23.70
2009,07,27,14,21,23.70
2009,07,27,14,22,23.80
2009,07,27,14,23,23.90
2009,07,27,14,24,23.90
2009,07,27,14,25,24.00
2009,07,27,14,26,24.00
2009,07,27,14,27,24.00
2009,07,27,14,28,24.10
2009,07,27,14,29,24.20
2009,07,27,14,30,24.40
2009,07,27,14,31,24.50
2009,07,27,14,32,24.60
2009,07,27,14,33,24.60
2009,07,27,14,34,24.70
2009,07,27,14,35,24.70
2009,07,27,14,36,24.80
2009,07,27,14,37,24.80
2009,07,27,14,38,24.80
2009,07,27,14,39,24.80
2009,07,27,14,40,24.70
2009,07,27,14,41,24.70
2009,07,27,14,42,24.70
2009,07,27,14,43,24.80
2009,07,27,14,44,24.90
2009,07,27,14,45,25.10
2009,07,27,14,46,25.20
2009,07,27,14,47,25.20
2009,07,27,14,48,25.10
2009,07,27,14,49,25.00
2009,07,27,14,50,25.00
2009,07,27,14,51,25.10
2009,07,27,14,52,25.20
2009,07,27,14,53,25.30
2009,07,27,14,54,25.30
2009,07,27,14,55,25.30
2009,07,27,14,56,25.30
2009,07,27,14,57,25.30
2009,07,27,14,58,25.30
2009,07,27,14,59,25.40
2009,07,27,15,00,25.60
2009,07,27,15,01,25.80
2009,07,27,15,02,25.90
2009,07,27,15,03,25.90
2009,07,27,15,04,25.80
2009,07,27,15,05,25.70
2009,07,27,15,06,25.70
2009,07,27,15,07,25.80
2009,07,27,15,08,25.90
2009,07,27,15,09,26.10
2009,07,27,15,10,26.20
2009,07,27,15,11,26.40
2009,07,27,15,12,26.50
2009,07,27,15,13,26.60
2009,07,27,15,14,26.60
2009,07,27,15,15,26.60
2009,07,27,15,16,26.60
2009,07,27,15,17,26.60
2009,07,27,15,18,26.50
2009,07,27,15,19,26.50
2009,07,27,15,20,26.50
2009,07,27,15,21,26.50
2009,07,27,15,22,26.50
2009,07,27,15,23,26.50
2009,07,27,15,24,26.50
2009,07,27,15,25,26.50
2009,07,27,15,26,26.50
2009,07,27,15,27,26.40
2009,07,27,15,28,26.50
2009,07,27,15,29,26.60
2009,07,27,15,30,26.70
2009,07,27,15,31,26.70
2009,07,27,15,32,26.80
2009,07,27,15,33,26.90
2009,07,27,15,34,27.00
2009,07,27,15,35,27.10
2009,07,27,15,36,27.20
2009,07,27,15,37,27.30
2009,07,27,15,38,27.40
2009,07,27,15,39,27.30
2009,07,27,15,40,27.30
2009,07,27,15,41,27.20
2009,07,27,15,42,27.20
2009,07,27,15,43,27.20
2009,07,27,15,44,27.20
2009,07,27,15,45,27.20
2009,07,27,15,46,27.20
2009,07,27,15,47,27.10
2009,07,27,15,48,27.10
2009,07,27,15,49,27.10
2009,07,27,15,50,27.20
2009,07,27,15,51,27.20
2009,07,27,15,52,27.40
2009,07,27,15,53,27.40
2009,07,27,15,54,27.40
2009,07,27,15,55,27.40
2009,07,27,15,56,27.60
2009,07,27,15,57,27.70
2009,07,27,15,58,27.80
2009,07,27,15,59,28.00
2009,07,27,16,00,28.10
2009,07,27,16,01,28.10
2009,07,27,16,02,28.10
2009,07,27,16,03,28.10
2009,07,27,16,04,28.00
2009,07,27,16,05,27.90
2009,07,27,16,06,27.90
2009,07,27,16,07,28.00
2009,07,27,16,08,28.10
2009,07,27,16,09,28.10
2009,07,27,16,10,28.20
2009,07,27,16,11,28.40
2009,07,27,16,12,28.40
2009,07,27,16,13,28.50
2009,07,27,16,14,28.50
2009,07,27,16,15,28.60
2009,07,27,16,16,28.50
2009,07,27,16,17,28.50
2009,07,27,16,18,28.50
2009,07,27,16,19,28.60
2009,07,27,16,20,28.60
2009,07,27,16,21,28.70
2009,07,27,16,22,28.80
2009,07,27,16,23,28.80
2009,07,27,16,24,28.80
2009,07,27,16,25,28.80
2009,07,27,16,26,28.80
2009,07,27,16,27,28.70
2009,07,27,16,28,28.70
2009,07,27,16,29,28.80
2009,07,27,16,30,28.80
2009,07,27,16,31,28.80
2009,07,27,16,32,28.80
2009,07,27,16,33,28.70
2009,07,27,16,34,28.60
2009,07,27,16,35,28.60
2009,07,27,16,36,28.50
2009,07,27,16,37,28.50
2009,07,27,16,38,28.50
2009,07,27,16,39,28.60
2009,07,27,16,40,28.70
2009,07,27,16,41,28.80
2009,07,27,16,42,28.80
2009,07,27,16,43,28.70
2009,07,27,16,44,28.60
2009,07,27,16,45,28.60
2009,07,27,16,46,28.50
2009,07,27,16,47,28.50
2009,07,27,16,48,28.40
2009,07,27,16,49,28.40
2009,07,27,16,50,28.50
2009,07,27,16,51,28.60
2009,07,27,16,52,28.70
2009,07,27,16,53,28.70
2009,07,27,16,54,28.60
2009,07,27,16,55,28.60
2009,07,27,16,56,28.50
2009,07,27,16,57,28.40
2009,07,27,16,58,28.30
2009,07,27,16,59,28.30
2009,07,27,17,00,28.30
2009,07,27,17,01,28.40
2009,07,27,17,02,28.40
2009,07,27,17,03,28.50
2009,07,27,17,04,28.50
2009,07,27,17,05,28.60
2009,07,27,17,06,28.70
2009,07,27,17,07,28.80
2009,07,27,17,08,28.90
2009,07,27,17,09,28.90
2009,07,27,17,10,28.80
2009,07,27,17,11,28.70
2009,07,27,17,12,28.70
2009,07,27,17,13,28.60
2009,07,27,17,14,28.50
2009,07,27,17,15,28.50
2009,07,27,17,16,28.40
2009,07,27,17,17,28.40
2009,07,27,17,18,28.30
2009,07,27,17,19,28.30